detectorid,starttime,volume,speed,occupancy,countreadings,vmt,vht,delay,traveltime,count_bad_speed,count_bad_volu,count_bad_occu
1560,1/1/2009 0:05,21,52.38000107,1.399999976,15,18.69,0.36,0.13,1.02,NA,NA,NA
1560,1/1/2009 0:10,31,51.93999863,2.130000114,15,27.59,0.53,0.14,1.03,NA,NA,NA
1560,1/1/2009 0:15,34,55.02999878,2.670000076,15,30.26,0.55,0.08,0.97,NA,NA,NA
1560,1/1/2009 0:20,44,52.36000061,3.529999971,15,39.16,0.75,0.13,1.02,NA,NA,NA
1560,1/1/2009 0:25,59,51.95000076,4.400000095,15,52.51,1.01,0.14,1.03,NA,NA,NA
1560,1/1/2009 0:30,57,51.29999924,4.199999809,15,50.73,0.99,0.15,1.04,NA,NA,NA
1560,1/1/2009 0:35,59,49.70999908,4.670000076,15,52.51,1.06,0.18,1.07,NA,NA,NA
1560,1/1/2009 0:40,57,51.81000137,4.329999924,15,50.73,0.98,0.14,1.03,NA,NA,NA
1560,1/1/2009 0:45,67,52.27000046,5.130000114,15,59.63,1.14,0.13,1.02,NA,NA,NA
1560,1/1/2009 0:50,59,52.29000092,4.53000021,15,52.51,1,0.13,1.02,NA,NA,NA
1560,1/1/2009 0:55,58,50.95000076,4.329999924,15,51.62,1.01,0.16,1.05,NA,NA,NA
1560,1/1/2009 1:00,66,52.72999954,5.329999924,15,58.74,1.11,0.12,1.01,NA,NA,NA
1560,1/1/2009 1:05,62,52.59999847,4.53000021,15,55.18,1.05,0.13,1.02,NA,NA,NA
1560,1/1/2009 1:10,65,52.29000092,5,15,57.85,1.11,0.13,1.02,NA,NA,NA
1560,1/1/2009 1:15,61,53.09999847,4.53000021,15,54.29,1.02,0.12,1.01,NA,NA,NA
1560,1/1/2009 1:20,59,51.36000061,4.46999979,15,52.51,1.02,0.15,1.04,NA,NA,NA
1560,1/1/2009 1:25,52,51.66999817,3.799999952,15,46.28,0.9,0.14,1.03,NA,NA,NA
1560,1/1/2009 1:30,60,51.02000046,4.929999828,15,53.4,1.05,0.16,1.05,NA,NA,NA
1560,1/1/2009 1:35,56,51.15999985,4,15,49.84,0.97,0.15,1.04,NA,NA,NA
1560,1/1/2009 1:40,51,52.36999893,3.799999952,15,45.39,0.87,0.13,1.02,NA,NA,NA
1560,1/1/2009 1:45,48,51.59999847,3.529999971,15,42.72,0.83,0.14,1.03,NA,NA,NA
1560,1/1/2009 1:50,51,52.06000137,4,15,45.39,0.87,0.14,1.03,NA,NA,NA
1560,1/1/2009 1:55,41,53.97999954,2.730000019,15,36.49,0.68,0.1,0.99,NA,NA,NA
1560,1/1/2009 2:00,44,53.72999954,3,15,39.16,0.73,0.1,0.99,NA,NA,NA
1560,1/1/2009 2:05,31,52.81000137,2.269999981,15,27.59,0.52,0.12,1.01,NA,NA,NA
1560,1/1/2009 2:10,35,52.29000092,2.269999981,15,31.15,0.6,0.13,1.02,NA,NA,NA
1560,1/1/2009 2:15,41,50.15000153,3.400000095,15,36.49,0.73,0.17,1.06,NA,NA,NA
1560,1/1/2009 2:20,41,53,3.269999981,15,36.49,0.69,0.12,1.01,NA,NA,NA
1560,1/1/2009 2:25,31,54.93999863,2.130000114,15,27.59,0.5,0.08,0.97,NA,NA,NA
1560,1/1/2009 2:30,36,53.47000122,2.799999952,15,32.04,0.6,0.11,1,NA,NA,NA
1560,1/1/2009 2:35,31,53.34999847,2,15,27.59,0.52,0.11,1,NA,NA,NA
1560,1/1/2009 2:40,23,50.74000168,1.600000024,15,20.47,0.4,0.16,1.05,NA,NA,NA
1560,1/1/2009 2:45,37,54.61999893,2.470000029,15,32.93,0.6,0.09,0.98,NA,NA,NA
1560,1/1/2009 2:50,37,52.11000061,2.670000076,15,32.93,0.63,0.13,1.02,NA,NA,NA
1560,1/1/2009 2:55,23,54.70000076,1.730000019,15,20.47,0.37,0.09,0.98,NA,NA,NA
1560,1/1/2009 3:00,19,55.68000031,1.269999981,15,16.91,0.3,0.07,0.96,NA,NA,NA
1560,1/1/2009 3:05,24,51.33000183,1.600000024,15,21.36,0.42,0.15,1.04,NA,NA,NA
1560,1/1/2009 3:10,28,53.04000092,1.929999948,15,24.92,0.47,0.12,1.01,NA,NA,NA
1560,1/1/2009 3:15,32,54.63000107,2.200000048,15,28.48,0.52,0.09,0.98,NA,NA,NA
1560,1/1/2009 3:20,21,53.86000061,1.600000024,15,18.69,0.35,0.1,0.99,NA,NA,NA
1560,1/1/2009 3:25,21,53.95000076,1.399999976,15,18.69,0.35,0.1,0.99,NA,NA,NA
1560,1/1/2009 3:30,18,52.88999939,1.399999976,15,16.02,0.3,0.12,1.01,NA,NA,NA
1560,1/1/2009 3:35,23,52.29999924,1.669999957,15,20.47,0.39,0.13,1.02,NA,NA,NA
1560,1/1/2009 3:40,25,53.04000092,1.669999957,15,22.25,0.42,0.12,1.01,NA,NA,NA
1560,1/1/2009 3:45,20,56.25,1.330000043,15,17.8,0.32,0.06,0.95,NA,NA,NA
1560,1/1/2009 3:50,22,53.59000015,1.470000029,15,19.58,0.37,0.11,1,NA,NA,NA
1560,1/1/2009 3:55,13,58.08000183,0.800000012,15,11.57,0.2,0.03,0.92,NA,NA,NA
1560,1/1/2009 4:00,21,53.04999924,1.529999971,15,18.69,0.35,0.12,1.01,NA,NA,NA
1560,1/1/2009 4:05,15,54.06999969,0.870000005,15,13.35,0.25,0.1,0.99,NA,NA,NA
1560,1/1/2009 4:10,19,51.47000122,1.200000048,15,16.91,0.33,0.15,1.04,NA,NA,NA
1560,1/1/2009 4:15,20,51.65000153,1.399999976,15,17.8,0.34,0.14,1.03,NA,NA,NA
1560,1/1/2009 4:20,17,48.52999878,1.070000052,15,15.13,0.31,0.21,1.1,NA,NA,NA
1560,1/1/2009 4:25,18,53.88999939,1.129999995,15,16.02,0.3,0.1,0.99,NA,NA,NA
1560,1/1/2009 4:30,18,54.66999817,1.200000048,15,16.02,0.29,0.09,0.98,NA,NA,NA
1560,1/1/2009 4:35,12,45.08000183,0.800000012,15,10.68,0.24,0.29,1.18,NA,NA,NA
1560,1/1/2009 4:40,11,53.72999954,0.800000012,15,9.79,0.18,0.1,0.99,NA,NA,NA
1560,1/1/2009 4:45,14,53.63999939,1,15,12.46,0.23,0.11,1,NA,NA,NA
1560,1/1/2009 4:50,14,56.79000092,0.930000007,15,12.46,0.22,0.05,0.94,NA,NA,NA
1560,1/1/2009 4:55,7,52.86000061,0.469999999,15,6.23,0.12,0.12,1.01,NA,NA,NA
1560,1/1/2009 5:00,12,56.5,1,15,10.68,0.19,0.06,0.95,NA,NA,NA
1560,1/1/2009 5:05,9,54.56000137,0.600000024,15,8.01,0.15,0.09,0.98,NA,NA,NA
1560,1/1/2009 5:10,11,54.63999939,0.730000019,15,9.79,0.18,0.09,0.98,NA,NA,NA
1560,1/1/2009 5:15,7,57.43000031,0.400000006,15,6.23,0.11,0.04,0.93,NA,NA,NA
1560,1/1/2009 5:20,13,54.45999908,0.870000005,15,11.57,0.21,0.09,0.98,NA,NA,NA
1560,1/1/2009 5:25,11,53.63999939,0.730000019,15,9.79,0.18,0.11,1,NA,NA,NA
1560,1/1/2009 5:30,16,53.5,0.930000007,15,14.24,0.27,0.11,1,NA,NA,NA
1560,1/1/2009 5:35,11,55.54999924,0.730000019,15,9.79,0.18,0.07,0.96,NA,NA,NA
1560,1/1/2009 5:40,11,53,0.730000019,15,9.79,0.18,0.12,1.01,NA,NA,NA
1560,1/1/2009 5:45,7,44.43000031,0.469999999,15,6.23,0.14,0.31,1.2,NA,NA,NA
1560,1/1/2009 5:50,16,51.56000137,1.070000052,15,14.24,0.28,0.15,1.04,NA,NA,NA
1560,1/1/2009 5:55,15,54.66999817,1,15,13.35,0.24,0.09,0.98,NA,NA,NA
1560,1/1/2009 6:00,12,54.66999817,0.730000019,15,10.68,0.2,0.09,0.98,NA,NA,NA
1560,1/1/2009 6:05,19,54.15999985,1.529999971,15,16.91,0.31,0.1,0.99,NA,NA,NA
1560,1/1/2009 6:10,13,48.45999908,0.930000007,15,11.57,0.24,0.21,1.1,NA,NA,NA
1560,1/1/2009 6:15,10,55.59999847,0.670000017,15,8.9,0.16,0.07,0.96,NA,NA,NA
1560,1/1/2009 6:20,17,51.11999893,1.269999981,15,15.13,0.3,0.15,1.04,NA,NA,NA
1560,1/1/2009 6:25,15,56.59999847,0.870000005,15,13.35,0.24,0.05,0.94,NA,NA,NA
1560,1/1/2009 6:30,20,54.40000153,1.470000029,15,17.8,0.33,0.09,0.98,NA,NA,NA
1560,1/1/2009 6:35,20,55.29999924,1.330000043,15,17.8,0.32,0.08,0.97,NA,NA,NA
1560,1/1/2009 6:40,13,50.31000137,0.800000012,15,11.57,0.23,0.17,1.06,NA,NA,NA
1560,1/1/2009 6:45,17,55.59000015,1.200000048,15,15.13,0.27,0.07,0.96,NA,NA,NA
1560,1/1/2009 6:50,18,54.77999878,1.330000043,15,16.02,0.29,0.08,0.97,NA,NA,NA
1560,1/1/2009 6:55,13,57.08000183,0.800000012,15,11.57,0.2,0.05,0.94,NA,NA,NA
1560,1/1/2009 7:00,16,54.18999863,1.129999995,15,14.24,0.26,0.1,0.99,NA,NA,NA
1560,1/1/2009 7:05,19,52,1.129999995,15,16.91,0.33,0.14,1.03,NA,NA,NA
1560,1/1/2009 7:10,12,50.66999817,0.930000007,15,10.68,0.21,0.16,1.05,NA,NA,NA
1560,1/1/2009 7:15,16,53.81000137,1,15,14.24,0.26,0.1,0.99,NA,NA,NA
1560,1/1/2009 7:20,25,52.08000183,1.730000019,15,22.25,0.43,0.14,1.03,NA,NA,NA
1560,1/1/2009 7:25,22,53.45000076,1.470000029,15,19.58,0.37,0.11,1,NA,NA,NA
1560,1/1/2009 7:30,21,50.75999832,1.399999976,15,18.69,0.37,0.16,1.05,NA,NA,NA
1560,1/1/2009 7:35,29,50.93000031,2.069999933,15,25.81,0.51,0.16,1.05,NA,NA,NA
1560,1/1/2009 7:40,20,54.59999847,1.330000043,15,17.8,0.33,0.09,0.98,NA,NA,NA
1560,1/1/2009 7:45,23,53.43000031,1.600000024,15,20.47,0.38,0.11,1,NA,NA,NA
1560,1/1/2009 7:50,23,55.74000168,1.600000024,15,20.47,0.37,0.07,0.96,NA,NA,NA
1560,1/1/2009 7:55,18,52.22000122,1.200000048,15,16.02,0.31,0.13,1.02,NA,NA,NA
1560,1/1/2009 8:00,16,57.56000137,1,15,14.24,0.25,0.04,0.93,NA,NA,NA
1560,1/1/2009 8:05,23,54.90999985,1.529999971,15,20.47,0.37,0.08,0.97,NA,NA,NA
1560,1/1/2009 8:10,27,55.18999863,2,15,24.03,0.44,0.08,0.97,NA,NA,NA
1560,1/1/2009 8:15,23,51.34999847,1.799999952,15,20.47,0.4,0.15,1.04,NA,NA,NA
1560,1/1/2009 8:20,26,58.08000183,1.730000019,15,23.14,0.4,0.03,0.92,NA,NA,NA
1560,1/1/2009 8:25,15,58.59999847,0.930000007,15,13.35,0.23,0.02,0.91,NA,NA,NA
1560,1/1/2009 8:30,23,58.09000015,1.330000043,15,20.47,0.35,0.03,0.92,NA,NA,NA
1560,1/1/2009 8:35,23,57.90999985,1.330000043,15,20.47,0.35,0.03,0.92,NA,NA,NA
1560,1/1/2009 8:40,31,55.65000153,2.130000114,15,27.59,0.5,0.07,0.96,NA,NA,NA
1560,1/1/2009 8:45,25,55.52000046,1.730000019,15,22.25,0.4,0.07,0.96,NA,NA,NA
1560,1/1/2009 8:50,28,56.31999969,2,15,24.92,0.44,0.06,0.95,NA,NA,NA
1560,1/1/2009 8:55,32,55.77999878,2.069999933,15,28.48,0.51,0.07,0.96,NA,NA,NA
1560,1/1/2009 9:00,23,58.29999924,1.470000029,15,20.47,0.35,0.03,0.92,NA,NA,NA
1560,1/1/2009 9:05,18,55.56000137,1.129999995,15,16.02,0.29,0.07,0.96,NA,NA,NA
1560,1/1/2009 9:10,31,57.31999969,2.069999933,15,27.59,0.48,0.04,0.93,NA,NA,NA
1560,1/1/2009 9:15,44,57.34000015,3,15,39.16,0.68,0.04,0.93,NA,NA,NA
1560,1/1/2009 9:20,31,56.38999939,2,15,27.59,0.49,0.06,0.95,NA,NA,NA
1560,1/1/2009 9:25,40,58.27999878,2.599999905,15,35.6,0.61,0.03,0.92,NA,NA,NA
1560,1/1/2009 9:30,27,55.36999893,1.799999952,15,24.03,0.43,0.07,0.96,NA,NA,NA
1560,1/1/2009 9:35,37,57.15999985,2.640000105,14,32.93,0.58,0.04,0.93,NA,NA,NA
1560,1/1/2009 9:40,44,56.04999924,3.200000048,15,39.16,0.7,0.06,0.95,NA,NA,NA
1560,1/1/2009 9:45,45,57.58000183,2.869999886,15,40.05,0.7,0.04,0.93,NA,NA,NA
1560,1/1/2009 9:50,58,56.22000122,4.199999809,15,51.62,0.92,0.06,0.95,NA,NA,NA
1560,1/1/2009 9:55,48,56.09999847,3.269999981,15,42.72,0.76,0.06,0.95,NA,NA,NA
1560,1/1/2009 10:00,43,56.29999924,2.869999886,15,38.27,0.68,0.06,0.95,NA,NA,NA
1560,1/1/2009 10:05,43,58.04999924,3,15,38.27,0.66,0.03,0.92,NA,NA,NA
1560,1/1/2009 10:10,45,56.06999969,3.200000048,15,40.05,0.71,0.06,0.95,NA,NA,NA
1560,1/1/2009 10:15,59,54.31999969,4.199999809,15,52.51,0.97,0.09,0.98,NA,NA,NA
1560,1/1/2009 10:20,61,54.45999908,4.329999924,15,54.29,1,0.09,0.98,NA,NA,NA
1560,1/1/2009 10:25,55,56.95999908,4.130000114,15,48.95,0.86,0.05,0.94,NA,NA,NA
1560,1/1/2009 10:30,60,57.27000046,4.070000172,15,53.4,0.93,0.04,0.93,NA,NA,NA
1560,1/1/2009 10:35,51,56.75,3.529999971,15,45.39,0.8,0.05,0.94,NA,NA,NA
1560,1/1/2009 10:40,50,55.75999832,3.670000076,15,44.5,0.8,0.07,0.96,NA,NA,NA
1560,1/1/2009 10:45,81,54.20999908,5.800000191,15,72.09,1.33,0.1,0.99,NA,NA,NA
1560,1/1/2009 10:50,53,55.77000046,3.529999971,15,47.17,0.85,0.07,0.96,NA,NA,NA
1560,1/1/2009 10:55,68,56.24000168,5.130000114,15,60.52,1.08,0.06,0.95,NA,NA,NA
1560,1/1/2009 11:00,67,55.81000137,5,15,59.63,1.07,0.07,0.96,NA,NA,NA
1560,1/1/2009 11:05,71,54.54000092,5.5,14,63.19,1.16,0.09,0.98,NA,NA,NA
1560,1/1/2009 11:10,64,55.90999985,4.599999905,15,56.96,1.02,0.07,0.96,NA,NA,NA
1560,1/1/2009 11:15,71,54.79000092,5,15,63.19,1.15,0.08,0.97,NA,NA,NA
1560,1/1/2009 11:20,69,53.40999985,4.929999828,15,61.41,1.15,0.11,1,NA,NA,NA
1560,1/1/2009 11:25,76,55.20000076,5.670000076,15,67.64,1.23,0.08,0.97,NA,NA,NA
1560,1/1/2009 11:30,76,56.38000107,5.599999905,15,67.64,1.2,0.06,0.95,NA,NA,NA
1560,1/1/2009 11:35,72,54.13000107,5.329999924,15,64.08,1.18,0.1,0.99,NA,NA,NA
1560,1/1/2009 11:40,71,53.88999939,5.199999809,15,63.19,1.17,0.1,0.99,NA,NA,NA
1560,1/1/2009 11:45,82,54.09999847,6,15,72.98,1.35,0.1,0.99,NA,NA,NA
1560,1/1/2009 11:50,87,54.00999832,6.46999979,15,77.43,1.43,0.1,0.99,NA,NA,NA
1560,1/1/2009 11:55,67,56.70000076,5.690000057,13,59.63,1.05,0.05,0.94,NA,NA,NA
1560,1/1/2009 12:00,72,54.18000031,5.53000021,15,64.08,1.18,0.1,0.99,NA,NA,NA
1560,1/1/2009 12:05,69,52.38000107,5.070000172,15,61.41,1.17,0.13,1.02,NA,NA,NA
1560,1/1/2009 12:10,64,55.47000122,4.53000021,15,56.96,1.03,0.07,0.96,NA,NA,NA
1560,1/1/2009 12:15,90,52.02000046,7.070000172,15,80.1,1.54,0.14,1.03,NA,NA,NA
1560,1/1/2009 12:20,83,51.00999832,7,14,73.87,1.45,0.16,1.05,NA,NA,NA
1560,1/1/2009 12:25,85,53.20999908,6.53000021,15,75.65,1.42,0.11,1,NA,NA,NA
1560,1/1/2009 12:30,96,52.5,7.800000191,15,85.44,1.63,0.13,1.02,NA,NA,NA
1560,1/1/2009 12:35,89,51.68999863,6.929999828,15,79.21,1.53,0.14,1.03,NA,NA,NA
1560,1/1/2009 12:40,85,54.24000168,6.070000172,15,75.65,1.39,0.09,0.98,NA,NA,NA
1560,1/1/2009 12:45,99,51.68999863,7.670000076,15,88.11,1.7,0.14,1.03,NA,NA,NA
1560,1/1/2009 12:50,86,52.34999847,6.670000076,15,76.54,1.46,0.13,1.02,NA,NA,NA
1560,1/1/2009 12:55,90,52.90999985,6.869999886,15,80.1,1.51,0.12,1.01,NA,NA,NA
1560,1/1/2009 13:00,87,53.31999969,6.599999905,15,77.43,1.45,0.11,1,NA,NA,NA
1560,1/1/2009 13:05,84,54.16999817,6.53000021,15,74.76,1.38,0.1,0.99,NA,NA,NA
1560,1/1/2009 13:10,95,50.97999954,7.869999886,15,84.55,1.66,0.16,1.05,NA,NA,NA
1560,1/1/2009 13:15,95,53.86999893,7.670000076,15,84.55,1.57,0.1,0.99,NA,NA,NA
1560,1/1/2009 13:20,90,51.66999817,7.329999924,15,80.1,1.55,0.14,1.03,NA,NA,NA
1560,1/1/2009 13:25,95,51.43999863,7.730000019,15,84.55,1.64,0.15,1.04,NA,NA,NA
1560,1/1/2009 13:30,91,51.02999878,7.070000172,15,80.99,1.59,0.16,1.05,NA,NA,NA
1560,1/1/2009 13:35,100,51.84000015,7.670000076,15,89,1.72,0.14,1.03,NA,NA,NA
1560,1/1/2009 13:40,94,50.95999908,7.329999924,15,83.66,1.64,0.16,1.05,NA,NA,NA
1560,1/1/2009 13:45,81,53.11000061,6.400000095,15,72.09,1.36,0.12,1.01,NA,NA,NA
1560,1/1/2009 13:50,97,50.95000076,7.53000021,15,86.33,1.69,0.16,1.05,NA,NA,NA
1560,1/1/2009 13:55,99,52.63999939,8,15,88.11,1.67,0.12,1.01,NA,NA,NA
1560,1/1/2009 14:00,99,52.27999878,7.869999886,15,88.11,1.69,0.13,1.02,NA,NA,NA
1560,1/1/2009 14:05,94,52.75999832,7.400000095,15,83.66,1.59,0.12,1.01,NA,NA,NA
1560,1/1/2009 14:10,91,52.08000183,7.070000172,15,80.99,1.56,0.14,1.03,NA,NA,NA
1560,1/1/2009 14:15,97,53.99000168,7.670000076,15,86.33,1.6,0.1,0.99,NA,NA,NA
1560,1/1/2009 14:20,81,54.41999817,5.869999886,15,72.09,1.32,0.09,0.98,NA,NA,NA
1560,1/1/2009 14:25,91,52.97999954,6.929999828,15,80.99,1.53,0.12,1.01,NA,NA,NA
1560,1/1/2009 14:30,78,54.13999939,5.869999886,15,69.42,1.28,0.1,0.99,NA,NA,NA
1560,1/1/2009 14:35,96,51.34000015,7.800000191,15,85.44,1.66,0.15,1.04,NA,NA,NA
1560,1/1/2009 14:40,92,54.56999969,7.269999981,15,81.88,1.5,0.09,0.98,NA,NA,NA
1560,1/1/2009 14:45,88,51.81999969,6.929999828,15,78.32,1.51,0.14,1.03,NA,NA,NA
1560,1/1/2009 14:50,71,53.88999939,5.46999979,15,63.19,1.17,0.1,0.99,NA,NA,NA
1560,1/1/2009 14:55,56,54.45999908,4.070000172,15,49.84,0.92,0.09,0.98,NA,NA,NA
1560,1/1/2009 15:00,92,53.95000076,7.070000172,15,81.88,1.52,0.1,0.99,NA,NA,NA
1560,1/1/2009 15:05,77,53.25,5.869999886,15,68.53,1.29,0.11,1,NA,NA,NA
1560,1/1/2009 15:10,73,53.70999908,5.670000076,15,64.97,1.21,0.1,0.99,NA,NA,NA
1560,1/1/2009 15:15,67,54.40000153,4.929999828,15,59.63,1.1,0.09,0.98,NA,NA,NA
1560,1/1/2009 15:20,92,51.29999924,7.199999809,15,81.88,1.6,0.15,1.04,NA,NA,NA
1560,1/1/2009 15:25,64,55.22000122,4.730000019,15,56.96,1.03,0.08,0.97,NA,NA,NA
1560,1/1/2009 15:30,75,51.88000107,5.869999886,15,66.75,1.29,0.14,1.03,NA,NA,NA
1560,1/1/2009 15:35,79,52.90000153,6.130000114,15,70.31,1.33,0.12,1.01,NA,NA,NA
1560,1/1/2009 15:40,69,53.68000031,5.329999924,15,61.41,1.14,0.1,0.99,NA,NA,NA
1560,1/1/2009 15:45,98,53.54999924,7.800000191,15,87.22,1.63,0.11,1,NA,NA,NA
1560,1/1/2009 15:50,86,53.72000122,6.53000021,15,76.54,1.42,0.1,0.99,NA,NA,NA
1560,1/1/2009 15:55,70,54.49000168,5.53000021,15,62.3,1.14,0.09,0.98,NA,NA,NA
1560,1/1/2009 16:00,68,53.50999832,4.929999828,15,60.52,1.13,0.11,1,NA,NA,NA
1560,1/1/2009 16:05,62,53.04999924,4.46999979,15,55.18,1.04,0.12,1.01,NA,NA,NA
1560,1/1/2009 16:10,71,55.75999832,5,15,63.19,1.13,0.07,0.96,NA,NA,NA
1560,1/1/2009 16:15,69,52.61000061,5.269999981,15,61.41,1.17,0.13,1.02,NA,NA,NA
1560,1/1/2009 16:20,64,53.20000076,4.869999886,15,56.96,1.07,0.11,1,NA,NA,NA
1560,1/1/2009 16:25,57,54.50999832,3.930000067,15,50.73,0.93,0.09,0.98,NA,NA,NA
1560,1/1/2009 16:30,65,51.41999817,5.269999981,15,57.85,1.13,0.15,1.04,NA,NA,NA
1560,1/1/2009 16:35,59,52.59000015,4.46999979,15,52.51,1,0.13,1.02,NA,NA,NA
1560,1/1/2009 16:40,81,51.36999893,6.670000076,15,72.09,1.4,0.15,1.04,NA,NA,NA
1560,1/1/2009 16:45,75,50.99000168,5.929999828,15,66.75,1.31,0.16,1.05,NA,NA,NA
1560,1/1/2009 16:50,64,49.27000046,5.199999809,15,56.96,1.16,0.19,1.08,NA,NA,NA
1560,1/1/2009 16:55,65,49.54999924,5.53000021,15,57.85,1.17,0.19,1.08,NA,NA,NA
1560,1/1/2009 17:00,75,49.20999908,5.869999886,15,66.75,1.36,0.2,1.09,NA,NA,NA
1560,1/1/2009 17:05,67,46.63000107,5.53000021,15,59.63,1.28,0.26,1.15,NA,NA,NA
1560,1/1/2009 17:10,90,48.13999939,7.800000191,15,80.1,1.66,0.22,1.11,NA,NA,NA
1560,1/1/2009 17:15,63,48.63000107,5.130000114,15,56.07,1.15,0.21,1.1,NA,NA,NA
1560,1/1/2009 17:20,57,51.61000061,4.730000019,15,50.73,0.98,0.14,1.03,NA,NA,NA
1560,1/1/2009 17:25,70,50.59000015,5.46999979,15,62.3,1.23,0.17,1.06,NA,NA,NA
1560,1/1/2009 17:30,62,48.91999817,5.070000172,15,55.18,1.13,0.2,1.09,NA,NA,NA
1560,1/1/2009 17:35,69,47.88000107,5.869999886,15,61.41,1.28,0.23,1.12,NA,NA,NA
1560,1/1/2009 17:40,59,50.08000183,4.730000019,15,52.51,1.05,0.18,1.07,NA,NA,NA
1560,1/1/2009 17:45,54,47.54000092,4.46999979,15,48.06,1.01,0.23,1.12,NA,NA,NA
1560,1/1/2009 17:50,66,49.40999985,5.070000172,15,58.74,1.19,0.19,1.08,NA,NA,NA
1560,1/1/2009 17:55,69,52.54000092,5.400000095,15,61.41,1.17,0.13,1.02,NA,NA,NA
1560,1/1/2009 18:00,77,49.38999939,6.130000114,15,68.53,1.39,0.19,1.08,NA,NA,NA
1560,1/1/2009 18:05,69,51.04000092,5.53000021,15,61.41,1.2,0.16,1.05,NA,NA,NA
1560,1/1/2009 18:10,79,49.68000031,6.269999981,15,70.31,1.42,0.18,1.07,NA,NA,NA
1560,1/1/2009 18:15,71,50.15000153,5.929999828,15,63.19,1.26,0.17,1.06,NA,NA,NA
1560,1/1/2009 18:20,64,51.86000061,4.599999905,15,56.96,1.1,0.14,1.03,NA,NA,NA
1560,1/1/2009 18:25,75,52.02999878,5.869999886,15,66.75,1.28,0.14,1.03,NA,NA,NA
1560,1/1/2009 18:30,71,50.15000153,5.599999905,15,63.19,1.26,0.17,1.06,NA,NA,NA
1560,1/1/2009 18:35,74,51.79999924,5.46999979,15,65.86,1.27,0.14,1.03,NA,NA,NA
1560,1/1/2009 18:40,66,51.84999847,4.670000076,15,58.74,1.13,0.14,1.03,NA,NA,NA
1560,1/1/2009 18:45,59,52.52999878,4.329999924,15,52.51,1,0.13,1.02,NA,NA,NA
1560,1/1/2009 18:50,63,50.86000061,4.800000191,15,56.07,1.1,0.16,1.05,NA,NA,NA
1560,1/1/2009 18:55,73,51.18999863,5.730000019,15,64.97,1.27,0.15,1.04,NA,NA,NA
1560,1/1/2009 19:00,64,52.31000137,4.929999828,15,56.96,1.09,0.13,1.02,NA,NA,NA
1560,1/1/2009 19:05,44,54.84000015,3.069999933,15,39.16,0.71,0.08,0.97,NA,NA,NA
1560,1/1/2009 19:10,75,46.84000015,6.199999809,15,66.75,1.43,0.25,1.14,NA,NA,NA
1560,1/1/2009 19:15,73,49.84999847,5.670000076,15,64.97,1.3,0.18,1.07,NA,NA,NA
1560,1/1/2009 19:20,46,52.52000046,3.269999981,15,40.94,0.78,0.13,1.02,NA,NA,NA
1560,1/1/2009 19:25,68,52.45999908,5.199999809,15,60.52,1.15,0.13,1.02,NA,NA,NA
1560,1/1/2009 19:30,71,51.93999863,5.199999809,15,63.19,1.22,0.14,1.03,NA,NA,NA
1560,1/1/2009 19:35,64,52.04999924,5,15,56.96,1.09,0.14,1.03,NA,NA,NA
1560,1/1/2009 19:40,63,52.49000168,4.400000095,15,56.07,1.07,0.13,1.02,NA,NA,NA
1560,1/1/2009 19:45,76,50.33000183,6.199999809,15,67.64,1.34,0.17,1.06,NA,NA,NA
1560,1/1/2009 19:50,48,52.41999817,3.470000029,15,42.72,0.81,0.13,1.02,NA,NA,NA
1560,1/1/2009 19:55,66,52.43999863,4.929999828,15,58.74,1.12,0.13,1.02,NA,NA,NA
1560,1/1/2009 20:00,58,53.02000046,4.130000114,15,51.62,0.97,0.12,1.01,NA,NA,NA
1560,1/1/2009 20:05,58,51.68999863,4.599999905,15,51.62,1,0.14,1.03,NA,NA,NA
1560,1/1/2009 20:10,60,51.68000031,4.869999886,15,53.4,1.03,0.14,1.03,NA,NA,NA
1560,1/1/2009 20:15,51,54.91999817,3.599999905,15,45.39,0.83,0.08,0.97,NA,NA,NA
1560,1/1/2009 20:20,57,53.09000015,4.070000172,15,50.73,0.96,0.12,1.01,NA,NA,NA
1560,1/1/2009 20:25,53,50.22999954,3.869999886,15,47.17,0.94,0.17,1.06,NA,NA,NA
1560,1/1/2009 20:30,51,54.52999878,3.730000019,15,45.39,0.83,0.09,0.98,NA,NA,NA
1560,1/1/2009 20:35,50,50.34000015,4.070000172,15,44.5,0.88,0.17,1.06,NA,NA,NA
1560,1/1/2009 20:40,59,52.29000092,4.599999905,15,52.51,1,0.13,1.02,NA,NA,NA
1560,1/1/2009 20:45,54,50.29999924,4.070000172,15,48.06,0.96,0.17,1.06,NA,NA,NA
1560,1/1/2009 20:50,38,53.34000015,2.730000019,15,33.82,0.63,0.11,1,NA,NA,NA
1560,1/1/2009 20:55,37,51.49000168,2.670000076,15,32.93,0.64,0.15,1.04,NA,NA,NA
1560,1/1/2009 21:00,45,52.77999878,3.869999886,15,40.05,0.76,0.12,1.01,NA,NA,NA
1560,1/1/2009 21:05,47,51,3.529999971,15,41.83,0.82,0.16,1.05,NA,NA,NA
1560,1/1/2009 21:10,55,52.33000183,4.269999981,15,48.95,0.94,0.13,1.02,NA,NA,NA
1560,1/1/2009 21:15,41,51.02000046,2.930000067,15,36.49,0.72,0.16,1.05,NA,NA,NA
1560,1/1/2009 21:20,43,48.74000168,3.329999924,15,38.27,0.79,0.21,1.1,NA,NA,NA
1560,1/1/2009 21:25,47,51.74000168,3.670000076,15,41.83,0.81,0.14,1.03,NA,NA,NA
1560,1/1/2009 21:30,50,52.13999939,3.670000076,15,44.5,0.85,0.13,1.02,NA,NA,NA
1560,1/1/2009 21:35,48,53.04000092,3.329999924,15,42.72,0.81,0.12,1.01,NA,NA,NA
1560,1/1/2009 21:40,38,48.29000092,2.799999952,15,33.82,0.7,0.22,1.11,NA,NA,NA
1560,1/1/2009 21:45,39,53.15000153,2.730000019,15,34.71,0.65,0.11,1,NA,NA,NA
1560,1/1/2009 21:50,46,51.09000015,3.400000095,15,40.94,0.8,0.16,1.05,NA,NA,NA
1560,1/1/2009 21:55,41,50,3.069999933,15,36.49,0.73,0.18,1.07,NA,NA,NA
1560,1/1/2009 22:00,29,52.75999832,1.929999948,15,25.81,0.49,0.12,1.01,NA,NA,NA
1560,1/1/2009 22:05,43,49.43999863,3,15,38.27,0.77,0.19,1.08,NA,NA,NA
1560,1/1/2009 22:10,46,52.09000015,3.599999905,15,40.94,0.79,0.14,1.03,NA,NA,NA
1560,1/1/2009 22:15,38,52.70999908,2.869999886,15,33.82,0.64,0.12,1.01,NA,NA,NA
1560,1/1/2009 22:20,34,51.02999878,2.200000048,15,30.26,0.59,0.16,1.05,NA,NA,NA
1560,1/1/2009 22:25,35,52.11000061,2.329999924,15,31.15,0.6,0.13,1.02,NA,NA,NA
1560,1/1/2009 22:30,36,51.16999817,2.599999905,15,32.04,0.63,0.15,1.04,NA,NA,NA
1560,1/1/2009 22:35,42,52.18999863,3.400000095,15,37.38,0.72,0.13,1.02,NA,NA,NA
1560,1/1/2009 22:40,43,51.81000137,3.400000095,15,38.27,0.74,0.14,1.03,NA,NA,NA
1560,1/1/2009 22:45,33,53.75999832,2.329999924,15,29.37,0.55,0.1,0.99,NA,NA,NA
1560,1/1/2009 22:50,34,50.56000137,2.869999886,15,30.26,0.6,0.17,1.06,NA,NA,NA
1560,1/1/2009 22:55,31,51.31999969,2.130000114,15,27.59,0.54,0.15,1.04,NA,NA,NA
1560,1/1/2009 23:00,20,54.04999924,1.470000029,15,17.8,0.33,0.1,0.99,NA,NA,NA
1560,1/1/2009 23:05,31,52.31999969,2.529999971,15,27.59,0.53,0.13,1.02,NA,NA,NA
1560,1/1/2009 23:10,21,55.61999893,1.399999976,15,18.69,0.34,0.07,0.96,NA,NA,NA
1560,1/1/2009 23:15,29,53.40999985,1.799999952,15,25.81,0.48,0.11,1,NA,NA,NA
1560,1/1/2009 23:20,34,53.84999847,2.329999924,15,30.26,0.56,0.1,0.99,NA,NA,NA
1560,1/1/2009 23:25,26,56.61999893,1.669999957,15,23.14,0.41,0.05,0.94,NA,NA,NA
1560,1/1/2009 23:30,22,56.18000031,1.600000024,15,19.58,0.35,0.06,0.95,NA,NA,NA
1560,1/1/2009 23:35,32,54.02999878,2.269999981,15,28.48,0.53,0.1,0.99,NA,NA,NA
1560,1/1/2009 23:40,24,51.88000107,1.669999957,15,21.36,0.41,0.14,1.03,NA,NA,NA
1560,1/1/2009 23:45,25,53.91999817,1.600000024,15,22.25,0.41,0.1,0.99,NA,NA,NA
1560,1/1/2009 23:50,31,55.70999908,2.130000114,15,27.59,0.5,0.07,0.96,NA,NA,NA
1560,1/1/2009 23:55,27,56.88999939,1.730000019,15,24.03,0.42,0.05,0.94,NA,NA,NA
1560,1/2/2009 0:00,20,53.20000076,1.399999976,15,17.8,0.33,0.11,1,NA,NA,NA
1560,1/2/2009 0:05,22,52.54999924,1.529999971,15,19.58,0.37,0.13,1.02,NA,NA,NA
1560,1/2/2009 0:10,21,52.52000046,1.399999976,15,18.69,0.36,0.13,1.02,NA,NA,NA
1560,1/2/2009 0:15,22,52.86000061,1.330000043,15,19.58,0.37,0.12,1.01,NA,NA,NA
1560,1/2/2009 0:20,20,53.29999924,1.330000043,15,17.8,0.33,0.11,1,NA,NA,NA
1560,1/2/2009 0:25,23,52.95999908,1.600000024,15,20.47,0.39,0.12,1.01,NA,NA,NA
1560,1/2/2009 0:30,13,55.15000153,0.930000007,15,11.57,0.21,0.08,0.97,NA,NA,NA
1560,1/2/2009 0:35,17,52.11999893,1.070000052,15,15.13,0.29,0.13,1.02,NA,NA,NA
1560,1/2/2009 0:40,13,51.91999817,0.870000005,15,11.57,0.22,0.14,1.03,NA,NA,NA
1560,1/2/2009 0:45,19,53.79000092,1.330000043,15,16.91,0.31,0.1,0.99,NA,NA,NA
1560,1/2/2009 0:50,23,55.04000092,1.529999971,15,20.47,0.37,0.08,0.97,NA,NA,NA
1560,1/2/2009 0:55,9,53.77999878,0.469999999,15,8.01,0.15,0.1,0.99,NA,NA,NA
1560,1/2/2009 1:00,7,45.13999939,0.529999971,15,6.23,0.14,0.29,1.18,NA,NA,NA
1560,1/2/2009 1:05,9,44.11000061,0.600000024,15,8.01,0.18,0.32,1.21,NA,NA,NA
1560,1/2/2009 1:10,13,50.61999893,0.870000005,15,11.57,0.23,0.16,1.05,NA,NA,NA
1560,1/2/2009 1:15,18,38.72000122,1.330000043,15,16.02,0.41,0.49,1.38,NA,NA,NA